Skip Page Navigation
NASA JPL Caltech
NASA Logo - Jet Propulsion Laboratory + View the NASA Portal
+ Center for Near-Earth Object Studies
JPL Home Earth Solar System Stars & Galaxies Technology
JPL Solar System Dynamics
BODIES ORBITS EPHEMERIDES TOOLS PHYSICAL DATA DISCOVERY FAQ SITE MAP
IMPORTANT: The SSD Announcement email list is now available. Major changes are coming in the near future, including possible hostname and/or URL changes. To be notified of such changes, subscribe to this email list.

Please visit this page for more details.


JPL Small-Body Database Browser
Search: [ help ]  
71100 (1999 XV139)
Classification: Main-belt Asteroid          SPK-ID: 2071100
Ephemeris | Orbit Diagram | Orbital Elements | Mission Design | Physical Parameters | Discovery Circumstances | Close-Approach Data ]

[ show orbit diagram ]
Orbital Elements at Epoch 2458600.5 (2019-Apr-27.0) TDB
Reference: JPL 22 (heliocentric ecliptic J2000)
 Element Value Uncertainty (1-sigma)   Units 
e .04922158178469441 5.0887e-08  
a 3.026898493107878 2.2786e-08 au
q 2.877909761375401 1.5629e-07 au
i 10.81799403290966 4.1141e-06 deg
node 108.1666599046995 2.9751e-05 deg
peri 276.6117593873624 5.4404e-05 deg
M 315.9940446645855 4.3923e-05 deg
tp 2458835.627900223032
(2019-Dec-18.12790022)
0.00023427 TDB
period 1923.513384384389
5.27
2.172e-05
5.947e-08
d
yr
n .1871575227511174 2.1133e-09 deg/d
Q 3.175887224840356 2.3907e-08 au
  Orbit Determination Parameters
   # obs. used (total)      933  
   data-arc span      7710 days (21.11 yr)  
   first obs. used      1998-09-21  
   last obs. used      2019-10-31  
   planetary ephem.      DE431  
   SB-pert. ephem.      SB431-N16  
   condition code      0  
   norm. resid. RMS      .5175  
   source      ORB  
   producer      Otto Matic  
   solution date      2019-Nov-07 08:24:19  

Additional Information
 Earth MOID = 1.90736 au 
 Jupiter MOID = 2.11353 au 
 T_jup = 3.216 
[ hide covariance matrix ]
Orbital Elements at Epoch 2456959.5 (2014-Oct-29.0) TDB
Reference: JPL 22 (heliocentric ecliptic J2000)
 Element Value Uncertainty (1-sigma)   Units 
e .048865089407179 5.1233e-08  
q 2.879298408200449 1.5694e-07 au
tp 2456886.751482337673
(2014-Aug-17.25148234)
0.00023892 TDB
node 108.4028653650107 2.9745e-05 deg
peri 272.0350697216998 5.4438e-05 deg
i 10.8185921866069 4.1146e-06 deg
  Orbit Determination Parameters
   # obs. used (total)      933  
   data-arc span      7710 days (21.11 yr)  
   first obs. used      1998-09-21  
   last obs. used      2019-10-31  
   planetary ephem.      DE431  
   SB-pert. ephem.      SB431-N16  
   condition code      0  
   norm. resid. RMS      .5175  
   source      ORB  
   producer      Otto Matic  
   solution date      2019-Nov-07 08:24:19  

Additional Information
 Jupiter MOID = 2.11353 au 
 T_jup = 3.216 
Orbit Covariance (6×6)
  e q tp node peri i
e 2.624791453828769E-15 -7.964246181402647E-15 -1.348473059053029E-12 1.468193569843818E-15 -3.019738683359536E-13 -4.037896354420591E-15
q -7.964246181402647E-15 2.462952932144608E-14 2.969515222474758E-12 -5.25992897113925E-15 7.056875094154176E-13 1.336376554060441E-14
tp -1.348473059053029E-12 2.969515222474758E-12 5.70827875913378E-8 -7.20804141974116E-12 1.094503628109963E-8 2.950722120877135E-12
node 1.468193569843818E-15 -5.25992897113925E-15 -7.20804141974116E-12 8.847871574391296E-10 -8.700977953504966E-10 2.07743103577497E-12
peri -3.019738683359536E-13 7.056875094154176E-13 1.094503628109963E-8 -8.700977953504966E-10 2.963524650942432E-9 -1.451164606559143E-12
i -4.037896354420591E-15 1.336376554060441E-14 2.950722120877135E-12 2.07743103577497E-12 -1.451164606559143E-12 1.693033538737781E-11

Ephemeris | Orbit Diagram | Orbital Elements | Mission Design | Physical Parameters | Discovery Circumstances | Close-Approach Data ]

Physical Parameter Table
Parameter Symbol Value Units Sigma Reference Notes
absolute magnitude H 14.2   n/a MPO412620  
diameter diameter 5.347 km 0.464 urn:nasa:pds:neowise_diameters_albedos::2.0[mainbelt] (http://adsabs.harvard.edu/abs/2011ApJ...741...68M)  
geometric albedo albedo 0.155   0.017 urn:nasa:pds:neowise_diameters_albedos::2.0[mainbelt] (http://adsabs.harvard.edu/abs/2011ApJ...741...68M)  

71100 (1999 XV139)          Discovered 1999-Dec-02 by Spacewatch at Kitt Peak
Reference: 20031109/Numbers.arcLast Updated: 2004-04-19

[ show close-approach data ]
Ephemeris | Orbit Diagram | Orbital Elements | Mission Design | Physical Parameters | Discovery Circumstances | Close-Approach Data ]
ABOUT SSD CREDITS/AWARDS PRIVACY/COPYRIGHT GLOSSARY LINKS
FirstGov
(server date/time)  
NASA Home Page
Site Manager:   Ryan S. Park
Webmaster  Alan B. Chamberlin